Time,TemperatureF,DewpointF,PressureIn,WindDirection,WindDirectionDegrees,WindSpeedMPH,WindSpeedGustMPH,Humidity,HourlyPrecipIn,Conditions,Clouds,dailyrainin,SolarRadiationWatts/m^2,SoftwareType,DateUTC
2013-01-08 00:02:00,73.0,62.0,-100.00,NNE,14,16.0,30.0,69,0.00,,,0.05,0.000000,,2013-01-08 10:02:00,
2013-01-08 00:12:00,73.0,62.0,-100.00,NNE,14,16.0,30.0,69,0.00,,,0.05,0.000000,,2013-01-08 10:12:00,
2013-01-08 00:22:00,73.0,62.0,-100.00,NNE,14,16.0,30.0,69,0.00,,,0.05,0.000000,,2013-01-08 10:22:00,
2013-01-08 00:32:00,73.0,62.0,-100.00,NNE,14,16.0,30.0,69,0.00,,,0.05,0.000000,,2013-01-08 10:32:00,
2013-01-08 01:02:00,73.0,64.0,-100.00,NNE,14,15.0,26.0,73,0.00,,,0.05,1.000000,,2013-01-08 11:02:00,
2013-01-08 01:12:00,73.0,64.0,-100.00,NNE,14,15.0,26.0,73,0.00,,,0.05,1.000000,,2013-01-08 11:12:00,
2013-01-08 01:22:00,73.0,64.0,-100.00,NNE,14,15.0,26.0,73,0.00,,,0.05,1.000000,,2013-01-08 11:22:00,
2013-01-08 01:32:00,73.0,64.0,-100.00,NNE,14,15.0,26.0,73,0.00,,,0.05,1.000000,,2013-01-08 11:32:00,
2013-01-08 01:53:00,74.0,65.0,-100.00,North,9,9.0,22.0,74,0.00,,,0.05,1.000000,,2013-01-08 11:53:00,
2013-01-08 02:02:00,74.0,65.0,-100.00,North,9,9.0,22.0,74,0.00,,,0.05,1.000000,,2013-01-08 12:02:00,
2013-01-08 02:12:00,74.0,65.0,-100.00,North,9,9.0,22.0,74,0.00,,,0.05,1.000000,,2013-01-08 12:12:00,
2013-01-08 02:22:00,74.0,65.0,-100.00,North,9,9.0,22.0,74,0.00,,,0.05,1.000000,,2013-01-08 12:22:00,
2013-01-08 02:32:00,74.0,65.0,-100.00,North,9,9.0,22.0,74,0.00,,,0.05,1.000000,,2013-01-08 12:32:00,
2013-01-08 02:53:00,74.0,66.0,-100.00,NNE,12,11.0,21.0,75,0.00,,,0.05,1.000000,,2013-01-08 12:53:00,
2013-01-08 03:03:00,74.0,66.0,-100.00,NNE,12,11.0,21.0,75,0.00,,,0.05,1.000000,,2013-01-08 13:03:00,
2013-01-08 03:12:00,74.0,66.0,-100.00,NNE,12,11.0,21.0,75,0.00,,,0.05,1.000000,,2013-01-08 13:12:00,
2013-01-08 03:22:00,74.0,66.0,-100.00,NNE,12,11.0,21.0,75,0.00,,,0.05,1.000000,,2013-01-08 13:22:00,
2013-01-08 03:32:00,74.0,66.0,-100.00,NNE,12,11.0,21.0,75,0.00,,,0.05,1.000000,,2013-01-08 13:32:00,
2013-01-08 04:02:00,72.0,63.0,-100.00,North,11,13.0,21.0,74,0.00,,,0.05,1.000000,,2013-01-08 14:02:00,
2013-01-08 04:12:00,72.0,63.0,-100.00,North,11,13.0,21.0,74,0.00,,,0.05,1.000000,,2013-01-08 14:12:00,
2013-01-08 04:22:00,72.0,63.0,-100.00,North,11,13.0,21.0,74,0.00,,,0.05,1.000000,,2013-01-08 14:22:00,
2013-01-08 04:32:00,72.0,63.0,-100.00,North,11,13.0,21.0,74,0.00,,,0.05,1.000000,,2013-01-08 14:32:00,
2013-01-08 04:53:00,73.0,63.0,-100.00,North,9,11.0,23.0,70,0.00,,,0.05,0.000000,,2013-01-08 14:53:00,
2013-01-08 05:02:00,73.0,63.0,-100.00,North,9,11.0,23.0,70,0.00,,,0.05,0.000000,,2013-01-08 15:02:00,
2013-01-08 05:12:00,73.0,63.0,-100.00,North,9,11.0,23.0,70,0.00,,,0.05,0.000000,,2013-01-08 15:12:00,
2013-01-08 05:22:00,73.0,63.0,-100.00,North,9,11.0,23.0,70,0.00,,,0.05,0.000000,,2013-01-08 15:22:00,
2013-01-08 05:32:00,73.0,63.0,-100.00,North,9,11.0,23.0,70,0.00,,,0.05,0.000000,,2013-01-08 15:32:00,
2013-01-08 06:03:00,73.0,63.0,-100.00,North,9,10.0,20.0,72,0.00,,,0.05,1.000000,,2013-01-08 16:03:00,
2013-01-08 06:12:00,73.0,63.0,-100.00,North,9,10.0,20.0,72,0.00,,,0.05,1.000000,,2013-01-08 16:12:00,
2013-01-08 06:22:00,73.0,63.0,-100.00,North,9,10.0,20.0,72,0.00,,,0.05,1.000000,,2013-01-08 16:22:00,
2013-01-08 06:32:00,73.0,63.0,-100.00,North,9,10.0,20.0,72,0.00,,,0.05,1.000000,,2013-01-08 16:32:00,
2013-01-08 07:03:00,72.0,64.0,-100.00,NNE,13,11.0,20.0,76,0.00,,,0.03,1.000000,,2013-01-08 17:03:00,
2013-01-08 07:12:00,72.0,64.0,-100.00,NNE,13,11.0,20.0,76,0.00,,,0.03,1.000000,,2013-01-08 17:12:00,
2013-01-08 07:22:00,72.0,64.0,-100.00,NNE,13,11.0,20.0,76,0.00,,,0.03,1.000000,,2013-01-08 17:22:00,
2013-01-08 07:33:00,72.0,64.0,-100.00,NNE,13,11.0,20.0,76,0.00,,,0.03,1.000000,,2013-01-08 17:33:00,
2013-01-08 08:03:00,74.0,66.0,-100.00,NNE,21,13.0,24.0,75,0.00,,,0.03,11.000000,,2013-01-08 18:03:00,
2013-01-08 08:12:00,74.0,66.0,-100.00,NNE,21,13.0,24.0,75,0.00,,,0.03,11.000000,,2013-01-08 18:12:00,
2013-01-08 08:23:00,74.0,66.0,-100.00,NNE,21,13.0,24.0,75,0.00,,,0.03,11.000000,,2013-01-08 18:23:00,
2013-01-08 08:33:00,74.0,66.0,-100.00,NNE,21,13.0,24.0,75,0.00,,,0.03,11.000000,,2013-01-08 18:33:00,
2013-01-08 08:53:00,74.0,63.0,-100.00,NNE,22,14.0,26.0,69,0.00,,,0.03,137.000000,,2013-01-08 18:53:00,
2013-01-08 09:03:00,74.0,63.0,-100.00,NNE,22,14.0,26.0,69,0.00,,,0.03,137.000000,,2013-01-08 19:03:00,
2013-01-08 09:12:00,74.0,63.0,-100.00,NNE,22,14.0,26.0,69,0.00,,,0.03,137.000000,,2013-01-08 19:12:00,
2013-01-08 09:22:00,74.0,63.0,-100.00,NNE,22,14.0,26.0,69,0.00,,,0.03,137.000000,,2013-01-08 19:22:00,
2013-01-08 09:32:00,74.0,63.0,-100.00,NNE,22,14.0,26.0,69,0.00,,,0.03,137.000000,,2013-01-08 19:32:00,
2013-01-08 09:53:00,78.0,65.0,-100.00,NNE,22,18.0,33.0,64,0.00,,,0.03,355.000000,,2013-01-08 19:53:00,
2013-01-08 10:02:00,78.0,65.0,-100.00,NNE,22,18.0,33.0,64,0.00,,,0.03,355.000000,,2013-01-08 20:02:00,
2013-01-08 10:12:00,78.0,65.0,-100.00,NNE,22,18.0,33.0,64,0.00,,,0.03,355.000000,,2013-01-08 20:12:00,
2013-01-08 10:22:00,78.0,65.0,-100.00,NNE,22,18.0,33.0,64,0.00,,,0.03,355.000000,,2013-01-08 20:22:00,
2013-01-08 10:32:00,78.0,65.0,-100.00,NNE,22,18.0,33.0,64,0.00,,,0.03,355.000000,,2013-01-08 20:32:00,
2013-01-08 10:53:00,81.0,63.0,-100.00,NNE,15,16.0,35.0,55,0.00,,,0.03,469.000000,,2013-01-08 20:53:00,
2013-01-08 11:02:00,81.0,63.0,-100.00,NNE,15,16.0,35.0,55,0.00,,,0.03,469.000000,,2013-01-08 21:02:00,
2013-01-08 11:12:00,81.0,63.0,-100.00,NNE,15,16.0,35.0,55,0.00,,,0.03,469.000000,,2013-01-08 21:12:00,
2013-01-08 11:22:00,81.0,63.0,-100.00,NNE,15,16.0,35.0,55,0.00,,,0.03,469.000000,,2013-01-08 21:22:00,
2013-01-08 11:32:00,81.0,63.0,-100.00,NNE,15,16.0,35.0,55,0.00,,,0.03,469.000000,,2013-01-08 21:32:00,
2013-01-08 11:53:00,81.0,64.0,-100.00,NNE,16,15.0,31.0,57,0.00,,,0.03,425.000000,,2013-01-08 21:53:00,
2013-01-08 12:02:00,81.0,64.0,-100.00,NNE,16,15.0,31.0,57,0.00,,,0.03,425.000000,,2013-01-08 22:02:00,
2013-01-08 12:12:00,81.0,64.0,-100.00,NNE,16,15.0,31.0,57,0.00,,,0.03,425.000000,,2013-01-08 22:12:00,
2013-01-08 12:22:00,81.0,64.0,-100.00,NNE,16,15.0,31.0,57,0.00,,,0.03,425.000000,,2013-01-08 22:22:00,
2013-01-08 12:32:00,81.0,64.0,-100.00,NNE,16,15.0,31.0,57,0.00,,,0.03,425.000000,,2013-01-08 22:32:00,
2013-01-08 12:53:00,81.0,65.0,-100.00,NNE,15,17.0,27.0,58,0.00,,,0.02,576.000000,,2013-01-08 22:53:00,
2013-01-08 13:02:00,81.0,65.0,-100.00,NNE,15,17.0,27.0,58,0.00,,,0.02,576.000000,,2013-01-08 23:02:00,
2013-01-08 13:12:00,81.0,65.0,-100.00,NNE,15,17.0,27.0,58,0.00,,,0.02,576.000000,,2013-01-08 23:12:00,
2013-01-08 13:22:00,81.0,65.0,-100.00,NNE,15,17.0,27.0,58,0.00,,,0.02,576.000000,,2013-01-08 23:22:00,
2013-01-08 13:32:00,81.0,65.0,-100.00,NNE,15,17.0,27.0,58,0.00,,,0.02,576.000000,,2013-01-08 23:32:00,
2013-01-08 14:02:00,83.0,66.0,-100.00,NNE,18,12.0,30.0,56,0.00,,,0.00,631.000000,,2013-01-09 00:02:00,
2013-01-08 14:12:00,83.0,66.0,-100.00,NNE,18,12.0,30.0,56,0.00,,,0.00,631.000000,,2013-01-09 00:12:00,
2013-01-08 14:22:00,83.0,66.0,-100.00,NNE,18,12.0,30.0,56,0.00,,,0.00,631.000000,,2013-01-09 00:22:00,
2013-01-08 14:32:00,83.0,66.0,-100.00,NNE,18,12.0,30.0,56,0.00,,,0.00,631.000000,,2013-01-09 00:32:00,
2013-01-08 15:02:00,83.0,62.0,-100.00,NNE,18,13.0,32.0,50,0.00,,,0.00,667.000000,,2013-01-09 01:02:00,
2013-01-08 15:12:00,83.0,62.0,-100.00,NNE,18,13.0,32.0,50,0.00,,,0.00,667.000000,,2013-01-09 01:12:00,
2013-01-08 15:22:00,83.0,62.0,-100.00,NNE,18,13.0,32.0,50,0.00,,,0.00,667.000000,,2013-01-09 01:22:00,
2013-01-08 15:32:00,83.0,62.0,-100.00,NNE,18,13.0,32.0,50,0.00,,,0.00,667.000000,,2013-01-09 01:32:00,
2013-01-08 15:52:00,82.0,64.0,-100.00,NNE,18,14.0,29.0,55,0.00,,,0.00,555.000000,,2013-01-09 01:52:00,
2013-01-08 16:02:00,82.0,64.0,-100.00,NNE,18,14.0,29.0,55,0.00,,,0.00,555.000000,,2013-01-09 02:02:00,
2013-01-08 16:12:00,82.0,64.0,-100.00,NNE,18,14.0,29.0,55,0.00,,,0.00,555.000000,,2013-01-09 02:12:00,
2013-01-08 16:22:00,82.0,64.0,-100.00,NNE,18,14.0,29.0,55,0.00,,,0.00,555.000000,,2013-01-09 02:22:00,
2013-01-08 16:32:00,82.0,64.0,-100.00,NNE,18,14.0,29.0,55,0.00,,,0.00,555.000000,,2013-01-09 02:32:00,
2013-01-08 16:53:00,79.0,64.0,-100.00,NNE,16,17.0,29.0,61,0.00,,,0.00,403.000000,,2013-01-09 02:53:00,
2013-01-08 17:03:00,79.0,64.0,-100.00,NNE,16,17.0,29.0,61,0.00,,,0.00,403.000000,,2013-01-09 03:03:00,
2013-01-08 17:12:00,79.0,64.0,-100.00,NNE,16,17.0,29.0,61,0.00,,,0.00,403.000000,,2013-01-09 03:12:00,
2013-01-08 17:22:00,79.0,64.0,-100.00,NNE,16,17.0,29.0,61,0.00,,,0.00,403.000000,,2013-01-09 03:22:00,
2013-01-08 17:32:00,79.0,64.0,-100.00,NNE,16,17.0,29.0,61,0.00,,,0.00,403.000000,,2013-01-09 03:32:00,
2013-01-08 18:02:00,76.0,64.0,-100.00,NNE,17,16.0,29.0,67,0.00,,,-99.99,203.000000,,2013-01-09 04:02:00,
2013-01-08 18:12:00,76.0,64.0,-100.00,NNE,17,16.0,29.0,67,0.00,,,-99.99,203.000000,,2013-01-09 04:12:00,
2013-01-08 18:22:00,76.0,64.0,-100.00,NNE,17,16.0,29.0,67,0.00,,,-99.99,203.000000,,2013-01-09 04:22:00,
2013-01-08 18:32:00,76.0,64.0,-100.00,NNE,17,16.0,29.0,67,0.00,,,-99.99,203.000000,,2013-01-09 04:32:00,
2013-01-08 19:03:00,75.0,66.0,-100.00,North,11,14.0,26.0,74,0.00,,,0.00,29.000000,,2013-01-09 05:03:00,
2013-01-08 19:12:00,75.0,66.0,-100.00,North,11,14.0,26.0,74,0.00,,,0.00,29.000000,,2013-01-09 05:12:00,
2013-01-08 19:22:00,75.0,66.0,-100.00,North,11,14.0,26.0,74,0.00,,,0.00,29.000000,,2013-01-09 05:22:00,
2013-01-08 19:32:00,75.0,66.0,-100.00,North,11,14.0,26.0,74,0.00,,,0.00,29.000000,,2013-01-09 05:32:00,
2013-01-08 19:52:00,74.0,66.0,-100.00,North,10,13.0,26.0,75,0.00,,,0.00,1.000000,,2013-01-09 05:52:00,
2013-01-08 20:02:00,74.0,66.0,-100.00,North,10,13.0,26.0,75,0.00,,,0.00,1.000000,,2013-01-09 06:02:00,
2013-01-08 20:12:00,74.0,66.0,-100.00,North,10,13.0,26.0,75,0.00,,,0.00,1.000000,,2013-01-09 06:12:00,
2013-01-08 20:22:00,74.0,66.0,-100.00,North,10,13.0,26.0,75,0.00,,,0.00,1.000000,,2013-01-09 06:22:00,
2013-01-08 20:32:00,74.0,66.0,-100.00,North,10,13.0,26.0,75,0.00,,,0.00,1.000000,,2013-01-09 06:32:00,
2013-01-08 20:52:00,74.0,66.0,-100.00,NNE,17,13.0,26.0,75,0.00,,,0.00,1.000000,,2013-01-09 06:52:00,
2013-01-08 21:02:00,74.0,66.0,-100.00,NNE,17,13.0,26.0,75,0.00,,,0.00,1.000000,,2013-01-09 07:02:00,
2013-01-08 21:12:00,74.0,66.0,-100.00,NNE,17,13.0,26.0,75,0.00,,,0.00,1.000000,,2013-01-09 07:12:00,
2013-01-08 21:22:00,74.0,66.0,-100.00,NNE,17,13.0,26.0,75,0.00,,,0.00,1.000000,,2013-01-09 07:22:00,
2013-01-08 21:32:00,74.0,66.0,-100.00,NNE,17,13.0,26.0,75,0.00,,,0.00,1.000000,,2013-01-09 07:32:00,
2013-01-08 21:52:00,74.0,66.0,-100.00,NNE,12,15.0,29.0,75,0.00,,,-99.99,1.000000,,2013-01-09 07:52:00,
2013-01-08 22:02:00,74.0,66.0,-100.00,NNE,12,15.0,29.0,75,0.00,,,-99.99,1.000000,,2013-01-09 08:02:00,
2013-01-08 22:12:00,74.0,66.0,-100.00,NNE,12,15.0,29.0,75,0.00,,,-99.99,1.000000,,2013-01-09 08:12:00,
2013-01-08 22:22:00,74.0,66.0,-100.00,NNE,12,15.0,29.0,75,0.00,,,-99.99,1.000000,,2013-01-09 08:22:00,
2013-01-08 22:32:00,74.0,66.0,-100.00,NNE,12,15.0,29.0,75,0.00,,,-99.99,1.000000,,2013-01-09 08:32:00,
2013-01-08 22:53:00,74.0,66.0,-100.00,NNE,13,15.0,33.0,76,0.00,,,0.00,1.000000,,2013-01-09 08:53:00,
2013-01-08 23:02:00,74.0,66.0,-100.00,NNE,13,15.0,33.0,76,0.00,,,0.00,1.000000,,2013-01-09 09:02:00,
2013-01-08 23:12:00,74.0,66.0,-100.00,NNE,13,15.0,33.0,76,0.00,,,0.00,1.000000,,2013-01-09 09:12:00,
2013-01-08 23:22:00,74.0,66.0,-100.00,NNE,13,15.0,33.0,76,0.00,,,0.00,1.000000,,2013-01-09 09:22:00,
2013-01-08 23:32:00,74.0,66.0,-100.00,NNE,13,15.0,33.0,76,0.00,,,0.00,1.000000,,2013-01-09 09:32:00,
2013-01-08 23:53:00,74.0,66.0,-100.00,North,9,18.0,28.0,76,0.00,,,0.00,1.000000,,2013-01-09 09:53:00,